Location: Bilsen
(53.7722°N, 9.8765°E)
Time: 08:12:45
(UTC+00:00)

PAYLOAD A - Pass Details

Date: 18 February 2020
Orbit: 693 x 831 km, 98.3° (Epoch: 09 April)

Event Time Altitude Azimuth Distance (km) Brightness Sun altitude
Rises 03:26:30 0° 17° (NNE) 3,121 7.6 -28.2°
Reaches altitude 10° 03:28:46 10° 20° (NNE) 2,212 6.8 -27.9°
Maximum altitude 03:33:35 64° 103° (ESE) 818 4.2 -27.2°
Enters shadow 03:34:32 52° 153° (SSE) 917 4.3 -27.0°
